Flag for Austria Weather past 2 weeks in Eisenstadt, Burgenland, Austria

Now
52 °F

Clear.


Feels Like: 52 °F
Forecast: 47 / 60 °F
Wind: 3 mph from Northeast

Location: Eisenstadt

Current Time: Apr 27, 2015 at 6:22:34 AM

Latest Report: Apr 27, 2015 at 5:00 AM


Visibility: 13 mi

Pressure: 29.69 "Hg

Humidity: 89%

Dew point: 49 °F

Location of EisenstadtLocation

Historic Weather in Eisenstadt — Graph

°F

Eisenstadt temperature yesterday

Maximum temperature yesterday: 71 °F (at 3:00 PM)
Minimum temperature yesterday: 51 °F (at 6:00 AM)
Average temperature yesterday: 62 °F

Past Weeks' High & Low Weather Summary

 TemperatureHumidityPressure
High81 °F (Apr 16, 2:00 PM)94% (Apr 17, 8:00 PM)30.42 "Hg (Apr 17, 8:00 PM)
Low34 °F (Apr 19, 2:00 AM)15% (Apr 16, 2:00 PM)29.71 "Hg (Apr 27, 4:00 AM)
Average57 °F52%30.07 "Hg
* Reported Apr 12 4:00 AM — Apr 27 4:00 AM, Eisenstadt, Weather by CustomWeather, © 2015

Note: Actual official high and low records may vary slightly from our data, if they occured in-between our weather recording intervals... More about our weather records

Advertising

Eisenstadt weather history for previous 24 hours

 ConditionsComfort  
Time TempWeatherWind HumidityBarometerVisibility
4:00 AM
Mon, Apr 27
52 °FCool.2 mph90%29.71 "HgN/A
3:00 AM52 °FCool.2 mph91%29.72 "HgN/A
2:00 AM52 °FPassing clouds.3 mph91%29.73 "Hg12 mi
1:00 AM54 °FCool.2 mph86%29.75 "HgN/A
12:00 AM54 °FCool.3 mph87%29.76 "HgN/A
11:00 PM
Sun, Apr 26
55 °FPassing clouds.3 mph85%29.77 "Hg12 mi
10:00 PM56 °FCool.2 mph82%29.77 "HgN/A
9:00 PM59 °FCool.2 mph76%29.77 "HgN/A
8:00 PM64 °FOvercast.2 mph60%29.77 "Hg16 mi
7:00 PM67 °FOvercast.3 mph58%29.77 "Hg16 mi
6:00 PM69 °FMild.3 mph49%29.77 "HgN/A
5:00 PM70 °FPartly sunny.5 mph46%29.77 "Hg16 mi
4:00 PM71 °FMild.1 mph44%29.78 "HgN/A
3:00 PM71 °FMild.2 mph45%29.79 "HgN/A
2:00 PM69 °FOvercast.3 mph48%29.81 "Hg12 mi
1:00 PM68 °FMild.5 mph49%29.83 "HgN/A
12:00 PM69 °FMild.3 mph52%29.82 "HgN/A
11:00 AM68 °FOvercast.3 mph53%29.84 "Hg12 mi
10:00 AM67 °FMild.2 mph54%29.84 "HgN/A
9:00 AM63 °FMild.2 mph58%29.84 "HgN/A
8:00 AM56 °FOvercast.1 mph71%29.84 "Hg12 mi
7:00 AM53 °FPartly sunny.1 mph81%29.84 "Hg12 mi
6:00 AM51 °FScattered clouds.1 mph85%29.83 "Hg12 mi
Weather by CustomWeather, © 2015

See weather overviewHow to use our weather pages